Location: Newark
(42.7133°N, 87.7910°W)
Time: 05:04:01
(UTC+00:00)

Tiros 1 - Pass Details

Date: 25 September 2019
Orbit: 630 x 664 km, 48.4° (Epoch: 19 October)

Event Time Altitude Azimuth Distance (km) Brightness Sun altitude
Rises 22:52:12 0° 294° (WNW) 2,950 11.6 8.5°
Reaches altitude 10° 22:54:38 10° 287° (WNW) 2,032 11.1 8.1°
Maximum altitude 22:59:02 43° 217° (SW) 898 8.5 7.3°
Drops below altitude 10° 23:03:24 10° 146° (SE) 2,005 9.4 6.5°
Sets 23:05:47 0° 140° (SE) 2,907 10.2 6.1°
